Location: Consuma
(43.7833°N, 11.5833°E)
Time: 18:48:35
(UTC+00:00)

Lacrosse 5 - Pass Details

Date: 17 February 2020
Orbit: 715 x 724 km, 57.0° (Epoch: 21 March)

Event Time Altitude Azimuth Distance (km) Brightness Sun altitude
Exits shadow 04:38:35 20° 315° (NW) 1,626 3.3 -17.2°
Maximum altitude 04:42:08 84° 41° (NE) 730 1.9 -16.6°
Drops below altitude 10° 04:47:13 10° 131° (SE) 2,204 5.1 -15.7°
Sets 04:49:36 0° 132° (SE) 3,122 6.0 -15.2°
